SB KEPS @ AMSAT $ORB13150.O Orbital Elements 13150.OSCAR
HR AMSAT ORBITAL ELEMENTS FOR OSCAR SATELLITES FROM WA5QGD FORT WORTH,TX May 30, 2013 BID: ORB13150.O TO ALL RADIO AMATEURS BT
Satellite: AO-07 Catalog number: 07530 Epoch time: 13150.86999484 Element set: 693 Inclination: 101.4289 deg RA of node: 141.0055 deg Eccentricity: 0.0011590 Arg of perigee: 324.2197 deg Mean anomaly: 094.3962 deg Mean motion: 12.53596488 rev/day Decay rate: -2.7e-07 rev/day^2 Epoch rev: 76361 Checksum: 320
Satellite: FO-29 Catalog number: 24278 Epoch time: 13150.77214845 Element set: 129 Inclination: 098.5572 deg RA of node: 211.6674 deg Eccentricity: 0.0350311 Arg of perigee: 209.1075 deg Mean anomaly: 267.9667 deg Mean motion: 13.53001807 rev/day Decay rate: -3.9e-07 rev/day^2 Epoch rev: 82895 Checksum: 321
Satellite: SO-33 Catalog number: 25509 Epoch time: 13150.16004104 Element set: 506 Inclination: 031.4299 deg RA of node: 169.6887 deg Eccentricity: 0.0351202 Arg of perigee: 000.0956 deg Mean anomaly: 063.7247 deg Mean motion: 14.29073013 rev/day Decay rate: 5.58e-06 rev/day^2 Epoch rev: 76231 Checksum: 276
Satellite: RS-22 Catalog number: 27939 Epoch time: 13150.75916946 Element set: 455 Inclination: 097.7987 deg RA of node: 339.5183 deg Eccentricity: 0.0012143 Arg of perigee: 241.1874 deg Mean anomaly: 118.8117 deg Mean motion: 14.64457470 rev/day Decay rate: 4.86e-06 rev/day^2 Epoch rev: 51674 Checksum: 342
Satellite: VO-52 Catalog number: 28650 Epoch time: 13150.11442435 Element set: 435 Inclination: 097.5686 deg RA of node: 169.6444 deg Eccentricity: 0.0024870 Arg of perigee: 343.3097 deg Mean anomaly: 057.6479 deg Mean motion: 14.83872788 rev/day Decay rate: 1.181e-05 rev/day^2 Epoch rev: 43640 Checksum: 330
Satellite: HO-68 Catalog number: 36122 Epoch time: 13150.72033336 Element set: 594 Inclination: 100.3074 deg RA of node: 208.2135 deg Eccentricity: 0.0007634 Arg of perigee: 037.5389 deg Mean anomaly: 322.6259 deg Mean motion: 13.16304646 rev/day Decay rate: -4.4e-07 rev/day^2 Epoch rev: 16611 Checksum: 272
/EX SB KEPS @ AMSAT $ORB13150.D Orbital Elements 13150.MICROS
HR AMSAT ORBITAL ELEMENTS FOR THE MICROSATS FROM WA5QGD FORT WORTH,TX May 30, 2013 BID: ORB13150.D TO ALL RADIO AMATEURS BT
Satellite: UO-11 Catalog number: 14781 Epoch time: 13149.79687150 Element set: 192 Inclination: 097.9045 deg RA of node: 211.3708 deg Eccentricity: 0.0008251 Arg of perigee: 357.4702 deg Mean anomaly: 002.6467 deg Mean motion: 14.80893542 rev/day Decay rate: 4.94e-06 rev/day^2 Epoch rev: 57121 Checksum: 308
Satellite: AO-16 Catalog number: 20439 Epoch time: 13150.82621274 Element set: 759 Inclination: 098.4699 deg RA of node: 091.2572 deg Eccentricity: 0.0010590 Arg of perigee: 204.0410 deg Mean anomaly: 213.7487 deg Mean motion: 14.32175926 rev/day Decay rate: 8.5e-07 rev/day^2 Epoch rev: 21975 Checksum: 305
Satellite: LO-19 Catalog number: 20442 Epoch time: 13149.88507447 Element set: 692 Inclination: 098.4389 deg RA of node: 092.1822 deg Eccentricity: 0.0011697 Arg of perigee: 197.6018 deg Mean anomaly: 198.9249 deg Mean motion: 14.32387010 rev/day Decay rate: 9.8e-07 rev/day^2 Epoch rev: 21981 Checksum: 341
Satellite: AO-27 Catalog number: 22825 Epoch time: 13149.93342022 Element set: 395 Inclination: 098.6168 deg RA of node: 094.1520 deg Eccentricity: 0.0007905 Arg of perigee: 349.9376 deg Mean anomaly: 051.7993 deg Mean motion: 14.29564970 rev/day Decay rate: 7.4e-07 rev/day^2 Epoch rev: 2602 Checksum: 322
Satellite: IO-26 Catalog number: 22826 Epoch time: 13150.44055925 Element set: 152 Inclination: 098.6110 deg RA of node: 094.9442 deg Eccentricity: 0.0008274 Arg of perigee: 340.7443 deg Mean anomaly: 132.8674 deg Mean motion: 14.29849378 rev/day Decay rate: 8.7e-07 rev/day^2 Epoch rev: 2622 Checksum: 307
Satellite: GO-32 Catalog number: 25397 Epoch time: 13150.82641953 Element set: 83 Inclination: 098.4125 deg RA of node: 119.3412 deg Eccentricity: 0.0001371 Arg of perigee: 045.1289 deg Mean anomaly: 014.7555 deg Mean motion: 14.23342212 rev/day Decay rate: 5.0e-07 rev/day^2 Epoch rev: 77347 Checksum: 276
Satellite: NO-44 Catalog number: 26931 Epoch time: 13149.93929119 Element set: 338 Inclination: 067.0528 deg RA of node: 306.5478 deg Eccentricity: 0.0007397 Arg of perigee: 282.8886 deg Mean anomaly: 221.1940 deg Mean motion: 14.29927488 rev/day Decay rate: 7.2e-07 rev/day^2 Epoch rev: 60881 Checksum: 349
Satellite: SO-50 Catalog number: 27607 Epoch time: 13150.00420796 Element set: 77 Inclination: 064.5577 deg RA of node: 319.4907 deg Eccentricity: 0.0047451 Arg of perigee: 169.9462 deg Mean anomaly: 335.5432 deg Mean motion: 14.72935316 rev/day Decay rate: 8.02e-06 rev/day^2 Epoch rev: 56103 Checksum: 305
Satellite: CO-55 Catalog number: 27844 Epoch time: 13149.62754764 Element set: 659 Inclination: 098.7003 deg RA of node: 158.9702 deg Eccentricity: 0.0008507 Arg of perigee: 305.8513 deg Mean anomaly: 172.8917 deg Mean motion: 14.21219053 rev/day Decay rate: 2.08e-06 rev/day^2 Epoch rev: 51409 Checksum: 320
Satellite: CO-57 Catalog number: 27848 Epoch time: 13150.73860684 Element set: 605 Inclination: 098.7089 deg RA of node: 159.5687 deg Eccentricity: 0.0008493 Arg of perigee: 309.1318 deg Mean anomaly: 106.0904 deg Mean motion: 14.20945028 rev/day Decay rate: 1.86e-06 rev/day^2 Epoch rev: 51418 Checksum: 334
Satellite: AO-51 Catalog number: 28375 Epoch time: 13150.48673769 Element set: 569 Inclination: 098.1995 deg RA of node: 106.6574 deg Eccentricity: 0.0084636 Arg of perigee: 070.1816 deg Mean anomaly: 047.3003 deg Mean motion: 14.41118737 rev/day Decay rate: 2.00e-06 rev/day^2 Epoch rev: 46878 Checksum: 330
Satellite: CP3 Catalog number: 31129 Epoch time: 13150.44154414 Element set: 473 Inclination: 097.8963 deg RA of node: 144.0833 deg Eccentricity: 0.0101683 Arg of perigee: 122.3806 deg Mean anomaly: 005.3935 deg Mean motion: 14.53645158 rev/day Decay rate: 7.81e-06 rev/day^2 Epoch rev: 32441 Checksum: 282
Satellite: CO-65 Catalog number: 32785 Epoch time: 13149.77493769 Element set: 644 Inclination: 097.7530 deg RA of node: 207.8333 deg Eccentricity: 0.0014047 Arg of perigee: 014.0852 deg Mean anomaly: 103.4484 deg Mean motion: 14.83870732 rev/day Decay rate: 1.017e-05 rev/day^2 Epoch rev: 27514 Checksum: 317
Satellite: PRISM Catalog number: 33493 Epoch time: 13150.77472205 Element set: 854 Inclination: 098.2147 deg RA of node: 307.1325 deg Eccentricity: 0.0017060 Arg of perigee: 247.4230 deg Mean anomaly: 112.5156 deg Mean motion: 14.85950269 rev/day Decay rate: 3.698e-05 rev/day^2 Epoch rev: 23533 Checksum: 291
Satellite: SOHLA-1 Catalog number: 33496 Epoch time: 13150.36504668 Element set: 58 Inclination: 098.1330 deg RA of node: 266.4320 deg Eccentricity: 0.0006703 Arg of perigee: 030.5723 deg Mean anomaly: 006.0322 deg Mean motion: 14.70289737 rev/day Decay rate: 3.41e-06 rev/day^2 Epoch rev: 23325 Checksum: 264
Satellite: SO-67 Catalog number: 35870 Epoch time: 13150.74083390 Element set: 105 Inclination: 097.1921 deg RA of node: 180.1117 deg Eccentricity: 0.0003201 Arg of perigee: 055.0973 deg Mean anomaly: 036.8718 deg Mean motion: 15.27030627 rev/day Decay rate: 6.137e-05 rev/day^2 Epoch rev: 20559 Checksum: 282
Satellite: TISAT-1 Catalog number: 36799 Epoch time: 13150.84909436 Element set: 122 Inclination: 098.0343 deg RA of node: 235.4349 deg Eccentricity: 0.0015710 Arg of perigee: 122.0117 deg Mean anomaly: 238.2573 deg Mean motion: 14.83297847 rev/day Decay rate: 2.769e-05 rev/day^2 Epoch rev: 15600 Checksum: 306
Satellite: STUDSAT Catalog number: 36801 Epoch time: 13149.84402968 Element set: 636 Inclination: 098.0445 deg RA of node: 237.3973 deg Eccentricity: 0.0012940 Arg of perigee: 110.2903 deg Mean anomaly: 029.3917 deg Mean motion: 14.88253139 rev/day Decay rate: 5.762e-05 rev/day^2 Epoch rev: 15600 Checksum: 303
Satellite: ALMASAT-1 Catalog number: 38078 Epoch time: 13150.71535443 Element set: 308 Inclination: 069.4751 deg RA of node: 241.5663 deg Eccentricity: 0.0699070 Arg of perigee: 169.5844 deg Mean anomaly: 192.0518 deg Mean motion: 14.24156154 rev/day Decay rate: 3.3684e-04 rev/day^2 Epoch rev: 6675 Checksum: 322
Satellite: XATCOBEO Catalog number: 38082 Epoch time: 13150.68637567 Element set: 188 Inclination: 069.4707 deg RA of node: 218.8128 deg Eccentricity: 0.0581457 Arg of perigee: 157.1656 deg Mean anomaly: 348.5536 deg Mean motion: 14.54179302 rev/day Decay rate: 8.2188e-04 rev/day^2 Epoch rev: 6737 Checksum: 347
Satellite: SOMP Catalog number: 39135 Epoch time: 13150.74761080 Element set: 83 Inclination: 064.8780 deg RA of node: 263.3416 deg Eccentricity: 0.0015342 Arg of perigee: 208.6940 deg Mean anomaly: 151.3316 deg Mean motion: 15.00189902 rev/day Decay rate: 5.053e-05 rev/day^2 Epoch rev: 621 Checksum: 262
Satellite: CUBEBUG-1 Catalog number: 39153 Epoch time: 13150.78612871 Element set: 108 Inclination: 098.0747 deg RA of node: 226.5339 deg Eccentricity: 0.0019294 Arg of perigee: 136.6780 deg Mean anomaly: 223.5931 deg Mean motion: 14.76411974 rev/day Decay rate: 1.597e-05 rev/day^2 Epoch rev: 511 Checksum: 309
Satellite: ESTCUBE-1 Catalog number: 39161 Epoch time: 13150.79445488 Element set: 71 Inclination: 098.1288 deg RA of node: 229.1434 deg Eccentricity: 0.0010134 Arg of perigee: 161.7068 deg Mean anomaly: 198.4488 deg Mean motion: 14.68946971 rev/day Decay rate: 1.272e-05 rev/day^2 Epoch rev: 344 Checksum: 316
/EX SB KEPS @ AMSAT $ORB13150.W Orbital Elements 13150.WEATHER
HR AMSAT ORBITAL ELEMENTS FOR WEATHER SATELLITES FROM WA5QGD FORT WORTH,TX May 30, 2013 BID: ORB13150.W TO ALL RADIO AMATEURS BT
Satellite: NOAA-10 Catalog number: 16969 Epoch time: 13150.17238209 Element set: 371 Inclination: 098.5464 deg RA of node: 178.4026 deg Eccentricity: 0.0011028 Arg of perigee: 299.8044 deg Mean anomaly: 101.7001 deg Mean motion: 14.27641141 rev/day Decay rate: 7.6e-07 rev/day^2 Epoch rev: 38937 Checksum: 292
